| time (UTC) | temp C | wind direction | speed KPH | gust KPH | rain 1hr cm | rain 24hr cm | rain mn cm | humidity % | barometer mb |
| 20260509201712 | 17 | 231 | 12.9 | 24.1 | 0.00 | 0.00 | 0.00 | 67 | 1004.2 |
| 20260509201005 | 17 | 237 | 11.3 | 30.6 | 0.00 | 0.00 | 0.00 | 66 | 1004.3 |
| 20260509200503 | 18 | 228 | 12.9 | 30.6 | 0.00 | 0.00 | 0.00 | 65 | 1004.3 |
| 20260509200003 | 17 | 218 | 16.1 | 30.6 | 0.00 | 0.00 | 0.00 | 67 | 1004.2 |
| 20260509195503 | 17 | 224 | 16.1 | 29.0 | 0.00 | 0.00 | 0.00 | 68 | 1004.3 |
| 20260509195003 | 17 | 222 | 14.5 | 29.0 | 0.00 | 0.00 | 0.00 | 67 | 1004.2 |
| 20260509194504 | 17 | 212 | 12.9 | 27.4 | 0.00 | 0.00 | 0.00 | 66 | 1004.2 |
| 20260509194215 | 18 | 205 | 12.9 | 27.4 | 0.00 | 0.00 | 0.00 | 66 | 1004.2 |
| 20260509193503 | 18 | 229 | 12.9 | 29.0 | 0.00 | 0.00 | 0.00 | 66 | 1004.4 |
| 20260509193003 | 18 | 243 | 16.1 | 29.0 | 0.00 | 0.00 | 0.00 | 67 | 1004.7 |
| 20260509192503 | 17 | 228 | 16.1 | 38.6 | 0.00 | 0.00 | 0.00 | 66 | 1004.6 |
| 20260509192003 | 17 | 221 | 16.1 | 38.6 | 0.00 | 0.00 | 0.00 | 68 | 1004.8 |
| 20260509191503 | 17 | 227 | 16.1 | 38.6 | 0.00 | 0.00 | 0.00 | 67 | 1004.9 |
| 20260509191003 | 17 | 234 | 17.7 | 30.6 | 0.00 | 0.00 | 0.00 | 67 | 1004.9 |
| 20260509190503 | 17 | 237 | 17.7 | 37.0 | 0.00 | 0.00 | 0.00 | 66 | 1005.1 |
| 20260509190213 | 17 | 228 | 17.7 | 41.8 | 0.00 | 0.00 | 0.00 | 67 | 1005.1 |
| 20260509185503 | 17 | 221 | 16.1 | 38.6 | 0.00 | 0.00 | 0.00 | 67 | 1005.2 |
| 20260509185003 | 17 | 226 | 16.1 | 30.6 | 0.00 | 0.00 | 0.00 | 69 | 1005.3 |
| 20260509184503 | 17 | 228 | 16.1 | 41.8 | 0.00 | 0.00 | 0.00 | 69 | 1005.3 |
| 20260509184003 | 17 | 218 | 14.5 | 38.6 | 0.00 | 0.00 | 0.00 | 69 | 1005.3 |
| 20260509183503 | 17 | 213 | 12.9 | 30.6 | 0.00 | 0.00 | 0.00 | 71 | 1005.1 |
| 20260509183213 | 17 | 227 | 14.5 | 30.6 | 0.00 | 0.00 | 0.00 | 70 | 1005.2 |
| 20260509182503 | 17 | 229 | 16.1 | 29.0 | 0.00 | 0.00 | 0.00 | 70 | 1005.3 |
| 20260509182005 | 17 | 230 | 14.5 | 38.6 | 0.00 | 0.00 | 0.00 | 70 | 1005.3 |
| 20260509181503 | 17 | 232 | 12.9 | 38.6 | 0.00 | 0.00 | 0.00 | 69 | 1005.3 |
| 20260509181006 | 17 | 208 | 12.9 | 30.6 | 0.00 | 0.00 | 0.00 | 70 | 1005.2 |
| 20260509180503 | 17 | 206 | 14.5 | 30.6 | 0.00 | 0.00 | 0.00 | 71 | 1005.3 |
| 20260509180212 | 17 | 219 | 14.5 | 30.6 | 0.00 | 0.00 | 0.00 | 71 | 1005.4 |
| 20260509175505 | 16 | 238 | 16.1 | 27.4 | 0.00 | 0.00 | 0.00 | 70 | 1005.5 |
| 20260509175003 | 16 | 240 | 14.5 | 27.4 | 0.00 | 0.00 | 0.00 | 71 | 1005.5 |
| 20260509174503 | 16 | 244 | 16.1 | 30.6 | 0.00 | 0.00 | 0.00 | 68 | 1005.7 |
| 20260509174003 | 17 | 252 | 17.7 | 32.2 | 0.00 | 0.00 | 0.00 | 69 | 1005.9 |
| 20260509173503 | 17 | 255 | 16.1 | 32.2 | 0.00 | 0.00 | 0.00 | 69 | 1006.0 |
| 20260509173005 | 17 | 259 | 16.1 | 35.4 | 0.00 | 0.00 | 0.00 | 69 | 1005.9 |
| 20260509172503 | 17 | 256 | 16.1 | 35.4 | 0.00 | 0.00 | 0.00 | 68 | 1005.9 |
| 20260509172005 | 17 | 247 | 12.9 | 30.6 | 0.00 | 0.00 | 0.00 | 67 | 1005.9 |
| 20260509171503 | 17 | 235 | 14.5 | 30.6 | 0.00 | 0.00 | 0.00 | 68 | 1006.0 |
| 20260509171214 | 17 | 223 | 14.5 | 30.6 | 0.00 | 0.00 | 0.00 | 68 | 1006.0 |
| 20260509170504 | 17 | 227 | 12.9 | 29.0 | 0.00 | 0.00 | 0.00 | 68 | 1006.0 |
| 20260509170003 | 16 | 235 | 14.5 | 30.6 | 0.00 | 0.00 | 0.00 | 69 | 1006.0 |
| 20260509165504 | 16 | 237 | 14.5 | 35.4 | 0.00 | 0.00 | 0.00 | 69 | 1006.1 |
| 20260509165214 | 16 | 234 | 14.5 | 35.4 | 0.00 | 0.00 | 0.00 | 67 | 1006.1 |
| 20260509164503 | 17 | 237 | 12.9 | 30.6 | 0.00 | 0.00 | 0.00 | 69 | 1006.1 |
| 20260509164003 | 17 | 241 | 16.1 | 30.6 | 0.00 | 0.00 | 0.00 | 71 | 1006.2 |
| 20260509163503 | 16 | 237 | 16.1 | 35.4 | 0.00 | 0.00 | 0.00 | 69 | 1006.1 |
| 20260509163003 | 16 | 251 | 14.5 | 35.4 | 0.00 | 0.00 | 0.00 | 69 | 1006.2 |
| 20260509162505 | 16 | 263 | 16.1 | 29.0 | 0.00 | 0.00 | 0.00 | 71 | 1006.2 |
| 20260509162003 | 16 | 262 | 16.1 | 29.0 | 0.00 | 0.00 | 0.00 | 70 | 1006.2 |
| 20260509161503 | 16 | 256 | 14.5 | 27.4 | 0.00 | 0.00 | 0.00 | 71 | 1006.3 |
| 20260509161005 | 16 | 239 | 12.9 | 27.4 | 0.00 | 0.00 | 0.00 | 70 | 1006.3 |
| 20260509160503 | 16 | 224 | 12.9 | 27.4 | 0.00 | 0.00 | 0.00 | 71 | 1006.4 |
| 20260509160005 | 15 | 235 | 14.5 | 27.4 | 0.00 | 0.00 | 0.00 | 72 | 1006.4 |
| 20260509155503 | 15 | 242 | 12.9 | 32.2 | 0.00 | 0.00 | 0.00 | 72 | 1006.4 |
| 20260509155003 | 15 | 236 | 11.3 | 32.2 | 0.00 | 0.00 | 0.00 | 72 | 1006.4 |
| 20260509154713 | 15 | 239 | 11.3 | 30.6 | 0.00 | 0.00 | 0.00 | 72 | 1006.5 |
| 20260509154003 | 15 | 221 | 11.3 | 29.0 | 0.00 | 0.00 | 0.00 | 72 | 1006.5 |
| 20260509153504 | 15 | 191 | 11.3 | 27.4 | 0.00 | 0.00 | 0.00 | 72 | 1006.5 |
| 20260509153003 | 15 | 201 | 9.7 | 27.4 | 0.00 | 0.00 | 0.00 | 72 | 1006.6 |
| 20260509152503 | 15 | 226 | 9.7 | 20.9 | 0.00 | 0.00 | 0.00 | 76 | 1006.6 |
| 20260509152003 | 14 | 221 | 9.7 | 29.0 | 0.00 | 0.00 | 0.00 | 76 | 1006.7 |
| 20260509151503 | 14 | 232 | 11.3 | 29.0 | 0.00 | 0.00 | 0.00 | 76 | 1006.7 |
| 20260509151003 | 14 | 243 | 11.3 | 20.9 | 0.00 | 0.00 | 0.00 | 78 | 1006.8 |
| 20260509150712 | 14 | 245 | 11.3 | 22.5 | 0.00 | 0.00 | 0.00 | 78 | 1006.9 |
| 20260509150003 | 14 | 233 | 11.3 | 22.5 | 0.00 | 0.00 | 0.00 | 78 | 1006.7 |
| 20260509145505 | 14 | 230 | 11.3 | 22.5 | 0.00 | 0.00 | 0.00 | 78 | 1006.7 |
| 20260509145005 | 13 | 235 | 9.7 | 20.9 | 0.00 | 0.00 | 0.00 | 78 | 1006.6 |
| 20260509144503 | 13 | 233 | 8.0 | 20.9 | 0.00 | 0.00 | 0.00 | 78 | 1006.7 |
| 20260509144003 | 13 | 218 | 9.7 | 22.5 | 0.00 | 0.00 | 0.00 | 78 | 1006.7 |
| 20260509143505 | 13 | 203 | 9.7 | 22.5 | 0.00 | 0.00 | 0.00 | 78 | 1006.7 |
| 20260509143005 | 13 | 202 | 8.0 | 22.5 | 0.00 | 0.00 | 0.00 | 79 | 1006.8 |
| 20260509142503 | 13 | 220 | 9.7 | 22.5 | 0.00 | 0.00 | 0.00 | 80 | 1006.8 |
| 20260509142005 | 13 | 223 | 9.7 | 20.9 | 0.00 | 0.00 | 0.00 | 81 | 1006.9 |
| 20260509141503 | 13 | 223 | 6.4 | 19.3 | 0.00 | 0.00 | 0.00 | 82 | 1006.9 |
| 20260509141005 | 13 | 230 | 8.0 | 24.1 | 0.00 | 0.00 | 0.00 | 82 | 1007.0 |
| 20260509140504 | 13 | 234 | 11.3 | 24.1 | 0.00 | 0.00 | 0.00 | 82 | 1007.0 |
| 20260509140003 | 13 | 228 | 11.3 | 24.1 | 0.00 | 0.00 | 0.00 | 82 | 1007.0 |
| 20260509135503 | 13 | 229 | 12.9 | 24.1 | 0.00 | 0.00 | 0.00 | 82 | 1007.0 |
| 20260509135003 | 13 | 223 | 9.7 | 24.1 | 0.00 | 0.00 | 0.00 | 82 | 1007.0 |
| 20260509134714 | 13 | 207 | 9.7 | 24.1 | 0.00 | 0.00 | 0.00 | 83 | 1007.1 |
| 20260509134003 | 13 | 198 | 9.7 | 22.5 | 0.00 | 0.00 | 0.00 | 83 | 1007.0 |
| 20260509133503 | 13 | 201 | 12.9 | 24.1 | 0.00 | 0.00 | 0.00 | 83 | 1007.2 |
| 20260509133004 | 13 | 205 | 11.3 | 30.6 | 0.00 | 0.00 | 0.00 | 84 | 1007.0 |
| 20260509132505 | 13 | 212 | 11.3 | 29.0 | 0.00 | 0.00 | 0.00 | 84 | 1007.1 |
| 20260509132003 | 13 | 206 | 11.3 | 27.4 | 0.00 | 0.00 | 0.00 | 84 | 1007.2 |
| 20260509131505 | 12 | 200 | 9.7 | 20.9 | 0.00 | 0.00 | 0.00 | 84 | 1007.1 |
| 20260509131003 | 12 | 185 | 9.7 | 19.3 | 0.00 | 0.00 | 0.00 | 86 | 1007.2 |
| 20260509130503 | 12 | 186 | 9.7 | 19.3 | 0.00 | 0.00 | 0.00 | 86 | 1007.3 |
| 20260509130004 | 12 | 184 | 8.0 | 19.3 | 0.00 | 0.00 | 0.00 | 87 | 1007.3 |
| 20260509125505 | 11 | 180 | 9.7 | 19.3 | 0.00 | 0.00 | 0.00 | 87 | 1007.4 |
| 20260509125003 | 11 | 183 | 8.0 | 19.3 | 0.00 | 0.00 | 0.00 | 87 | 1007.4 |
| 20260509124505 | 11 | 169 | 8.0 | 16.1 | 0.00 | 0.00 | 0.00 | 88 | 1007.4 |
| 20260509124003 | 11 | 162 | 8.0 | 19.3 | 0.00 | 0.03 | 0.00 | 88 | 1007.5 |
| 20260509123503 | 11 | 167 | 8.0 | 19.3 | 0.00 | 0.03 | 0.00 | 88 | 1007.5 |
| 20260509123215 | 11 | 166 | 8.0 | 20.9 | 0.00 | 0.03 | 0.00 | 88 | 1007.6 |
| 20260509122503 | 10 | 171 | 8.0 | 20.9 | 0.00 | 0.03 | 0.00 | 88 | 1007.7 |
| 20260509122003 | 10 | 167 | 8.0 | 19.3 | 0.00 | 0.03 | 0.00 | 88 | 1007.7 |
| 20260509121504 | 10 | 169 | 8.0 | 19.3 | 0.00 | 0.03 | 0.00 | 89 | 1007.8 |
| 20260509121004 | 10 | 169 | 8.0 | 20.9 | 0.00 | 0.03 | 0.00 | 89 | 1007.7 |
| 20260509120503 | 10 | 165 | 9.7 | 20.9 | 0.00 | 0.03 | 0.00 | 89 | 1007.8 |
| 20260509120005 | 10 | 174 | 8.0 | 16.1 | 0.00 | 0.03 | 0.00 | 89 | 1007.9 |
| 20260509115504 | 10 | 176 | 8.0 | 19.3 | 0.00 | 0.03 | 0.00 | 89 | 1007.7 |
| 20260509115003 | 9 | 171 | 8.0 | 19.3 | 0.00 | 0.03 | 0.00 | 90 | 1007.7 |
| 20260509114505 | 9 | 164 | 8.0 | 19.3 | 0.00 | 0.03 | 0.00 | 90 | 1007.8 |
| 20260509114003 | 9 | 162 | 8.0 | 19.3 | 0.00 | 0.05 | 0.00 | 90 | 1007.7 |
| 20260509113503 | 8 | 156 | 8.0 | 19.3 | 0.00 | 0.05 | 0.00 | 90 | 1007.7 |
| 20260509113003 | 8 | 149 | 8.0 | 16.1 | 0.00 | 0.08 | 0.00 | 90 | 1007.7 |
| 20260509112503 | 8 | 152 | 6.4 | 14.5 | 0.00 | 0.08 | 0.00 | 90 | 1007.6 |
| 20260509112214 | 8 | 153 | 6.4 | 16.1 | 0.00 | 0.13 | 0.00 | 90 | 1007.6 |
| 20260509111505 | 8 | 150 | 8.0 | 16.1 | 0.00 | 0.15 | 0.00 | 89 | 1007.8 |
| 20260509111003 | 8 | 154 | 8.0 | 16.1 | 0.00 | 0.18 | 0.00 | 89 | 1007.8 |
| 20260509110503 | 7 | 157 | 8.0 | 16.1 | 0.00 | 0.20 | 0.00 | 89 | 1007.8 |
| 20260509110003 | 7 | 157 | 6.4 | 16.1 | 0.00 | 0.23 | 0.00 | 89 | 1008.0 |
| 20260509105503 | 7 | 159 | 6.4 | 14.5 | 0.00 | 0.23 | 0.00 | 89 | 1008.0 |
| 20260509105003 | 7 | 160 | 6.4 | 14.5 | 0.00 | 0.23 | 0.00 | 89 | 1007.9 |
| 20260509104503 | 7 | 161 | 6.4 | 16.1 | 0.00 | 0.23 | 0.00 | 89 | 1007.9 |
| 20260509104003 | 7 | 160 | 8.0 | 16.1 | 0.00 | 0.23 | 0.00 | 89 | 1007.9 |
| 20260509103504 | 7 | 160 | 8.0 | 14.5 | 0.00 | 0.23 | 0.00 | 89 | 1007.9 |
| 20260509103003 | 7 | 162 | 8.0 | 14.5 | 0.00 | 0.23 | 0.00 | 89 | 1007.8 |
| 20260509102503 | 7 | 157 | 6.4 | 14.5 | 0.00 | 0.23 | 0.00 | 89 | 1007.6 |
| 20260509102003 | 7 | 145 | 4.8 | 14.5 | 0.00 | 0.23 | 0.00 | 89 | 1007.8 |
| 20260509101503 | 7 | 137 | 4.8 | 9.7 | 0.00 | 0.23 | 0.00 | 88 | 1007.9 |
| 20260509101214 | 7 | 136 | 4.8 | 8.0 | 0.00 | 0.23 | 0.00 | 88 | 1007.8 |
| 20260509100503 | 7 | 135 | 4.8 | 9.7 | 0.00 | 0.25 | 0.00 | 88 | 1007.9 |
| 20260509100004 | 7 | 133 | 6.4 | 14.5 | 0.00 | 0.25 | 0.00 | 88 | 1007.7 |
| 20260509095503 | 7 | 131 | 6.4 | 14.5 | 0.00 | 0.30 | 0.00 | 88 | 1007.7 |
| 20260509095214 | 7 | 129 | 6.4 | 14.5 | 0.00 | 0.30 | 0.00 | 87 | 1007.7 |
| 20260509094503 | 7 | 145 | 6.4 | 14.5 | 0.00 | 0.30 | 0.00 | 87 | 1007.8 |
| 20260509094004 | 7 | 156 | 4.8 | 9.7 | 0.00 | 0.30 | 0.00 | 87 | 1007.9 |
| 20260509093714 | 7 | 156 | 6.4 | 12.9 | 0.00 | 0.30 | 0.00 | 87 | 1007.8 |
| 20260509093003 | 7 | 157 | 6.4 | 12.9 | 0.00 | 0.30 | 0.00 | 86 | 1007.8 |
| 20260509092505 | 7 | 158 | 6.4 | 12.9 | 0.00 | 0.30 | 0.00 | 86 | 1007.8 |
| 20260509092003 | 7 | 160 | 6.4 | 12.9 | 0.00 | 0.30 | 0.00 | 84 | 1007.9 |
| 20260509091505 | 7 | 161 | 4.8 | 12.9 | 0.00 | 0.30 | 0.00 | 84 | 1007.8 |
| 20260509091003 | 7 | 161 | 6.4 | 12.9 | 0.00 | 0.30 | 0.00 | 84 | 1007.7 |
| 20260509090503 | 7 | 162 | 6.4 | 12.9 | 0.00 | 0.30 | 0.00 | 83 | 1007.8 |
| 20260509090003 | 7 | 163 | 6.4 | 12.9 | 0.00 | 0.30 | 0.00 | 83 | 1007.8 |
| 20260509085503 | 7 | 164 | 6.4 | 12.9 | 0.00 | 0.30 | 0.00 | 83 | 1007.8 |
| 20260509085215 | 7 | 163 | 6.4 | 12.9 | 0.00 | 0.30 | 0.00 | 82 | 1007.9 |
| 20260509084503 | 7 | 159 | 6.4 | 14.5 | 0.00 | 0.30 | 0.00 | 82 | 1008.0 |
| 20260509084003 | 7 | 156 | 6.4 | 14.5 | 0.00 | 0.30 | 0.00 | 81 | 1007.9 |
| 20260509083506 | 7 | 153 | 6.4 | 16.1 | 0.00 | 0.30 | 0.00 | 80 | 1007.9 |
| 20260509083003 | 7 | 152 | 4.8 | 16.1 | 0.00 | 0.30 | 0.00 | 80 | 1007.9 |
| 20260509082503 | 7 | 151 | 4.8 | 19.3 | 0.00 | 0.30 | 0.00 | 79 | 1008.0 |
| 20260509082003 | 7 | 151 | 4.8 | 19.3 | 0.00 | 0.30 | 0.00 | 78 | 1008.0 |
| 20260509081504 | 6 | 152 | 6.4 | 14.5 | 0.00 | 0.30 | 0.00 | 78 | 1008.0 |
| 20260509081213 | 6 | 152 | 6.4 | 14.5 | 0.00 | 0.30 | 0.00 | 78 | 1007.9 |
| 20260509080503 | 6 | 157 | 8.0 | 19.3 | 0.00 | 0.30 | 0.00 | 77 | 1008.1 |
| 20260509080003 | 6 | 157 | 8.0 | 19.3 | 0.00 | 0.30 | 0.00 | 77 | 1008.1 |
| 20260509075503 | 6 | 153 | 8.0 | 16.1 | 0.00 | 0.30 | 0.00 | 76 | 1008.1 |
| 20260509075213 | 6 | 152 | 8.0 | 16.1 | 0.00 | 0.30 | 0.00 | 76 | 1008.2 |
| 20260509074714 | 6 | 155 | 8.0 | 16.1 | 0.00 | 0.30 | 0.00 | 76 | 1008.2 |
| 20260509074003 | 6 | 154 | 6.4 | 14.5 | 0.00 | 0.30 | 0.00 | 76 | 1008.3 |
| 20260509073503 | 6 | 151 | 6.4 | 12.9 | 0.00 | 0.30 | 0.00 | 75 | 1008.3 |
| 20260509073213 | 6 | 151 | 6.4 | 12.9 | 0.00 | 0.30 | 0.00 | 75 | 1008.3 |
| 20260509072714 | 6 | 150 | 6.4 | 14.5 | 0.00 | 0.30 | 0.00 | 75 | 1008.3 |
| 20260509072003 | 6 | 150 | 8.0 | 16.1 | 0.00 | 0.30 | 0.00 | 75 | 1008.3 |
| 20260509071505 | 6 | 152 | 8.0 | 16.1 | 0.00 | 0.30 | 0.00 | 75 | 1008.5 |
| 20260509071213 | 6 | 152 | 8.0 | 16.1 | 0.00 | 0.30 | 0.00 | 75 | 1008.5 |
| 20260509070503 | 6 | 151 | 6.4 | 14.5 | 0.00 | 0.30 | 0.00 | 74 | 1008.5 |
| 20260509070003 | 6 | 155 | 6.4 | 16.1 | 0.00 | 0.30 | 0.00 | 74 | 1008.5 |
| 20260509065503 | 6 | 158 | 6.4 | 16.1 | 0.00 | 0.30 | 0.00 | 74 | 1008.6 |
| 20260509065003 | 6 | 158 | 6.4 | 14.5 | 0.00 | 0.30 | 0.00 | 74 | 1008.6 |
| 20260509064505 | 6 | 159 | 6.4 | 14.5 | 0.00 | 0.30 | 0.00 | 72 | 1008.7 |
| 20260509064003 | 6 | 160 | 8.0 | 14.5 | 0.00 | 0.30 | 0.00 | 72 | 1008.8 |
| 20260509063504 | 6 | 159 | 8.0 | 14.5 | 0.00 | 0.30 | 0.00 | 72 | 1008.8 |
| 20260509063003 | 6 | 152 | 6.4 | 14.5 | 0.00 | 0.30 | 0.00 | 72 | 1008.9 |
| 20260509062505 | 6 | 154 | 6.4 | 12.9 | 0.00 | 0.30 | 0.00 | 72 | 1008.9 |
| 20260509062003 | 6 | 162 | 8.0 | 14.5 | 0.00 | 0.30 | 0.00 | 71 | 1009.0 |
| 20260509061504 | 6 | 163 | 6.4 | 14.5 | 0.00 | 0.30 | 0.00 | 71 | 1009.0 |
| 20260509061003 | 6 | 160 | 6.4 | 14.5 | 0.00 | 0.30 | 0.00 | 71 | 1009.1 |
| 20260509060503 | 6 | 154 | 6.4 | 14.5 | 0.00 | 0.30 | 0.00 | 71 | 1009.2 |
| 20260509060004 | 6 | 155 | 8.0 | 14.5 | 0.00 | 0.30 | 0.00 | 70 | 1009.3 |
| 20260509055503 | 6 | 163 | 9.7 | 20.9 | 0.00 | 0.30 | 0.00 | 70 | 1009.4 |
| 20260509055214 | 6 | 164 | 9.7 | 22.5 | 0.00 | 0.30 | 0.00 | 70 | 1009.4 |
| 20260509054504 | 6 | 162 | 9.7 | 22.5 | 0.00 | 0.30 | 0.00 | 70 | 1009.5 |
| 20260509054003 | 6 | 158 | 8.0 | 19.3 | 0.00 | 0.30 | 0.00 | 69 | 1009.6 |
| 20260509053505 | 6 | 157 | 8.0 | 14.5 | 0.00 | 0.30 | 0.00 | 69 | 1009.6 |
| 20260509053003 | 6 | 157 | 8.0 | 14.5 | 0.00 | 0.30 | 0.00 | 69 | 1009.6 |
| 20260509052505 | 6 | 159 | 8.0 | 14.5 | 0.00 | 0.30 | 0.00 | 69 | 1009.6 |
| 20260509052003 | 6 | 161 | 8.0 | 14.5 | 0.00 | 0.30 | 0.00 | 68 | 1009.7 |
| 20260509051503 | 6 | 164 | 8.0 | 14.5 | 0.00 | 0.33 | 0.00 | 68 | 1009.7 |
| 20260509051003 | 6 | 162 | 9.7 | 16.1 | 0.00 | 0.33 | 0.00 | 68 | 1009.8 |
| 20260509050506 | 6 | 161 | 9.7 | 16.1 | 0.00 | 0.33 | 0.00 | 68 | 1009.9 |
| 20260509050003 | 6 | 162 | 8.0 | 16.1 | 0.00 | 0.33 | 0.00 | 67 | 1009.9 |
| 20260509045713 | 6 | 161 | 8.0 | 14.5 | 0.00 | 0.33 | 0.00 | 67 | 1009.9 |
| 20260509045003 | 7 | 163 | 8.0 | 14.5 | 0.00 | 0.33 | 0.00 | 67 | 1010.0 |
| 20260509044713 | 7 | 163 | 8.0 | 14.5 | 0.00 | 0.33 | 0.00 | 67 | 1009.9 |
| 20260509044005 | 7 | 164 | 8.0 | 16.1 | 0.00 | 0.33 | 0.00 | 67 | 1010.0 |
| 20260509043503 | 7 | 164 | 8.0 | 19.3 | 0.00 | 0.33 | 0.00 | 66 | 1010.0 |
| 20260509043005 | 7 | 159 | 8.0 | 16.1 | 0.00 | 0.33 | 0.00 | 66 | 1010.1 |
| 20260509042504 | 7 | 148 | 8.0 | 16.1 | 0.00 | 0.33 | 0.00 | 66 | 1010.3 |
| 20260509042004 | 7 | 151 | 8.0 | 16.1 | 0.00 | 0.33 | 0.00 | 65 | 1010.3 |
| 20260509041503 | 7 | 159 | 8.0 | 16.1 | 0.00 | 0.33 | 0.00 | 65 | 1010.3 |
| 20260509041003 | 7 | 158 | 8.0 | 16.1 | 0.00 | 0.33 | 0.00 | 66 | 1010.2 |
| 20260509040506 | 7 | 158 | 8.0 | 14.5 | 0.00 | 0.33 | 0.00 | 66 | 1010.2 |
| 20260509040005 | 7 | 161 | 9.7 | 16.1 | 0.00 | 0.33 | 0.00 | 66 | 1010.2 |
| 20260509035503 | 6 | 162 | 8.0 | 16.1 | 0.00 | 0.33 | 0.33 | 66 | 1010.4 |
| 20260509035003 | 6 | 163 | 8.0 | 16.1 | 0.00 | 0.33 | 0.33 | 67 | 1010.4 |
| 20260509034714 | 6 | 162 | 8.0 | 14.5 | 0.00 | 0.33 | 0.33 | 67 | 1010.5 |
| 20260509034005 | 6 | 169 | 6.4 | 14.5 | 0.00 | 0.33 | 0.33 | 68 | 1010.5 |
| 20260509033503 | 6 | 188 | 4.8 | 14.5 | 0.00 | 0.33 | 0.33 | 68 | 1010.6 |
| 20260509033004 | 6 | 218 | 4.8 | 9.7 | 0.00 | 0.33 | 0.33 | 70 | 1010.6 |
| 20260509032504 | 6 | 229 | 4.8 | 9.7 | 0.00 | 0.33 | 0.33 | 71 | 1010.6 |
| 20260509032215 | 6 | 230 | 4.8 | 8.0 | 0.00 | 0.33 | 0.33 | 71 | 1010.7 |
| 20260509031503 | 6 | 232 | 3.2 | 8.0 | 0.00 | 0.33 | 0.33 | 69 | 1010.8 |
| 20260509031005 | 6 | 232 | 1.6 | 6.4 | 0.00 | 0.33 | 0.33 | 69 | 1010.8 |
| 20260509030503 | 6 | 232 | 0.0 | 6.4 | 0.00 | 0.33 | 0.33 | 70 | 1010.8 |
| 20260509030003 | 6 | 0 | 0.0 | 0.0 | 0.00 | 0.33 | 0.33 | 69 | 1010.9 |
| 20260509025505 | 6 | 0 | 0.0 | 0.0 | 0.00 | 0.33 | 0.33 | 69 | 1010.8 |
| 20260509025003 | 6 | 233 | 0.0 | 4.8 | 0.00 | 0.33 | 0.33 | 68 | 1010.9 |
| 20260509024503 | 6 | 233 | 1.6 | 4.8 | 0.00 | 0.33 | 0.33 | 68 | 1010.8 |
| 20260509024213 | 6 | 233 | 1.6 | 6.4 | 0.00 | 0.33 | 0.33 | 68 | 1010.8 |
| 20260509023503 | 6 | 233 | 1.6 | 6.4 | 0.00 | 0.33 | 0.33 | 66 | 1010.9 |
| 20260509023003 | 6 | 233 | 0.0 | 4.8 | 0.00 | 0.33 | 0.33 | 65 | 1010.9 |
| 20260509022505 | 6 | 233 | 0.0 | 4.8 | 0.00 | 0.33 | 0.33 | 65 | 1010.9 |
| 20260509022006 | 6 | 0 | 0.0 | 0.0 | 0.00 | 0.33 | 0.33 | 66 | 1010.8 |
| 20260509021503 | 6 | 233 | 1.6 | 6.4 | 0.00 | 0.33 | 0.33 | 66 | 1010.8 |
| 20260509021003 | 7 | 234 | 1.6 | 6.4 | 0.00 | 0.33 | 0.33 | 65 | 1010.8 |
| 20260509020505 | 7 | 234 | 1.6 | 6.4 | 0.00 | 0.33 | 0.33 | 65 | 1010.8 |
| 20260509020003 | 7 | 234 | 0.0 | 4.8 | 0.00 | 0.33 | 0.33 | 66 | 1010.8 |
| 20260509015714 | 7 | 234 | 0.0 | 4.8 | 0.00 | 0.33 | 0.33 | 66 | 1010.7 |
| 20260509015003 | 7 | 0 | 0.0 | 0.0 | 0.00 | 0.36 | 0.33 | 65 | 1010.6 |
| 20260509014505 | 7 | 234 | 0.0 | 1.6 | 0.00 | 0.38 | 0.33 | 63 | 1010.6 |
| 20260509014214 | 7 | 234 | 0.0 | 1.6 | 0.00 | 0.38 | 0.33 | 63 | 1010.6 |
| 20260509013503 | 8 | 234 | 1.6 | 4.8 | 0.00 | 0.38 | 0.33 | 63 | 1010.6 |
| 20260509013212 | 8 | 234 | 1.6 | 4.8 | 0.00 | 0.38 | 0.33 | 62 | 1010.5 |
| 20260509012504 | 8 | 234 | 1.6 | 4.8 | 0.00 | 0.38 | 0.33 | 59 | 1010.4 |
| 20260509012212 | 8 | 234 | 0.0 | 4.8 | 0.00 | 0.41 | 0.33 | 58 | 1010.4 |
| 20260509011503 | 8 | 0 | 0.0 | 0.0 | 0.00 | 0.43 | 0.33 | 56 | 1010.5 |
| 20260509011003 | 9 | 234 | 1.6 | 4.8 | 0.00 | 0.43 | 0.33 | 57 | 1010.5 |
| 20260509010503 | 9 | 234 | 1.6 | 4.8 | 0.00 | 0.46 | 0.33 | 54 | 1010.5 |
| 20260509010003 | 10 | 234 | 0.0 | 4.8 | 0.00 | 0.46 | 0.33 | 51 | 1010.4 |
| 20260509005503 | 10 | 234 | 0.0 | 1.6 | 0.00 | 0.46 | 0.33 | 51 | 1010.5 |
| 20260509005214 | 10 | 0 | 0.0 | 0.0 | 0.00 | 0.46 | 0.33 | 52 | 1010.4 |
| 20260509004503 | 10 | 234 | 0.0 | 4.8 | 0.00 | 0.46 | 0.33 | 50 | 1010.4 |
| 20260509004003 | 10 | 234 | 0.0 | 4.8 | 0.00 | 0.46 | 0.33 | 47 | 1010.4 |
| 20260509003503 | 11 | 234 | 1.6 | 6.4 | 0.00 | 0.46 | 0.33 | 45 | 1010.3 |
| 20260509003003 | 11 | 234 | 3.2 | 6.4 | 0.00 | 0.46 | 0.33 | 42 | 1010.4 |
| 20260509002503 | 11 | 234 | 3.2 | 6.4 | 0.00 | 0.46 | 0.33 | 41 | 1010.3 |
| 20260509002004 | 11 | 234 | 3.2 | 8.0 | 0.00 | 0.46 | 0.33 | 41 | 1010.3 |
| 20260509001503 | 11 | 234 | 3.2 | 8.0 | 0.00 | 0.46 | 0.33 | 40 | 1010.3 |
| 20260509001214 | 11 | 234 | 3.2 | 8.0 | 0.00 | 0.46 | 0.33 | 39 | 1010.2 |
| 20260509000503 | 11 | 235 | 3.2 | 9.7 | 0.00 | 0.46 | 0.33 | 36 | 1010.1 |
| 20260509000004 | 11 | 236 | 3.2 | 9.7 | 0.00 | 0.46 | 0.33 | 36 | 1010.1 |
| 20260508235503 | 12 | 236 | 3.2 | 8.0 | 0.00 | 0.46 | 0.33 | 38 | 1010.0 |
| 20260508235004 | 12 | 238 | 3.2 | 8.0 | 0.00 | 0.46 | 0.33 | 35 | 1010.0 |
| 20260508234503 | 12 | 240 | 4.8 | 14.5 | 0.00 | 0.46 | 0.33 | 34 | 1010.0 |
| 20260508234004 | 12 | 238 | 6.4 | 19.3 | 0.00 | 0.46 | 0.33 | 33 | 1010.1 |
| 20260508233715 | 12 | 236 | 8.0 | 19.3 | 0.00 | 0.46 | 0.33 | 32 | 1010.0 |
| 20260508233216 | 12 | 241 | 9.7 | 19.3 | 0.00 | 0.46 | 0.33 | 32 | 1010.0 |
| 20260508232503 | 12 | 238 | 8.0 | 20.9 | 0.00 | 0.46 | 0.33 | 33 | 1010.0 |
| 20260508232216 | 12 | 230 | 9.7 | 22.5 | 0.00 | 0.46 | 0.33 | 32 | 1010.0 |
| 20260508231503 | 12 | 228 | 9.7 | 22.5 | 0.00 | 0.46 | 0.33 | 32 | 1010.0 |
| 20260508231213 | 12 | 229 | 9.7 | 20.9 | 0.00 | 0.46 | 0.33 | 32 | 1010.0 |
| 20260508230505 | 12 | 217 | 9.7 | 19.3 | 0.00 | 0.46 | 0.33 | 34 | 1010.0 |
| 20260508230005 | 12 | 206 | 8.0 | 19.3 | 0.00 | 0.46 | 0.33 | 35 | 1010.0 |
| 20260508225503 | 13 | 221 | 9.7 | 22.5 | 0.00 | 0.46 | 0.33 | 36 | 1010.0 |
| 20260508225003 | 13 | 244 | 11.3 | 22.5 | 0.00 | 0.46 | 0.33 | 36 | 1010.0 |
| 20260508224503 | 13 | 252 | 11.3 | 22.5 | 0.00 | 0.46 | 0.33 | 38 | 1010.1 |
| 20260508224213 | 13 | 241 | 11.3 | 22.5 | 0.00 | 0.46 | 0.33 | 39 | 1010.1 |
| 20260508223503 | 13 | 236 | 8.0 | 22.5 | 0.00 | 0.46 | 0.33 | 38 | 1010.1 |
| 20260508223003 | 13 | 234 | 8.0 | 20.9 | 0.00 | 0.46 | 0.33 | 38 | 1010.2 |
| 20260508222505 | 13 | 235 | 6.4 | 20.9 | 0.00 | 0.46 | 0.33 | 36 | 1010.2 |
| 20260508222003 | 13 | 260 | 8.0 | 20.9 | 0.00 | 0.46 | 0.33 | 36 | 1010.1 |
| 20260508221714 | 13 | 266 | 8.0 | 20.9 | 0.00 | 0.46 | 0.33 | 39 | 1010.1 |
| 20260508221213 | 13 | 244 | 9.7 | 20.9 | 0.00 | 0.46 | 0.33 | 38 | 1010.1 |
| 20260508220503 | 13 | 223 | 8.0 | 22.5 | 0.00 | 0.46 | 0.33 | 39 | 1010.2 |
| 20260508220003 | 13 | 232 | 8.0 | 22.5 | 0.00 | 0.46 | 0.33 | 39 | 1010.2 |
| 20260508215503 | 13 | 229 | 8.0 | 22.5 | 0.00 | 0.46 | 0.33 | 40 | 1010.2 |
| 20260508215003 | 13 | 231 | 9.7 | 22.5 | 0.00 | 0.46 | 0.33 | 38 | 1010.2 |
| 20260508214503 | 13 | 225 | 9.7 | 22.5 | 0.00 | 0.46 | 0.33 | 36 | 1010.2 |
| 20260508214003 | 13 | 224 | 8.0 | 16.1 | 0.00 | 0.46 | 0.33 | 36 | 1010.2 |
| 20260508213504 | 13 | 231 | 9.7 | 22.5 | 0.00 | 0.46 | 0.33 | 39 | 1010.2 |
| 20260508213215 | 13 | 232 | 8.0 | 22.5 | 0.00 | 0.46 | 0.33 | 39 | 1010.2 |
| 20260508212714 | 13 | 244 | 11.3 | 22.5 | 0.00 | 0.46 | 0.33 | 36 | 1010.2 |
| 20260508212003 | 13 | 259 | 12.9 | 24.1 | 0.00 | 0.46 | 0.33 | 38 | 1010.3 |
| 20260508211503 | 13 | 273 | 9.7 | 24.1 | 0.00 | 0.46 | 0.33 | 38 | 1010.2 |
| 20260508211003 | 13 | 258 | 9.7 | 27.4 | 0.00 | 0.46 | 0.33 | 38 | 1010.2 |
| 20260508210504 | 13 | 251 | 8.0 | 27.4 | 0.00 | 0.46 | 0.33 | 42 | 1010.1 |
| 20260508210003 | 13 | 231 | 6.4 | 27.4 | 0.00 | 0.46 | 0.33 | 41 | 1010.2 |
| 20260508205503 | 13 | 196 | 6.4 | 14.5 | 0.00 | 0.46 | 0.33 | 40 | 1010.2 |
| 20260508205213 | 13 | 200 | 6.4 | 19.3 | 0.00 | 0.46 | 0.33 | 41 | 1010.2 |
| 20260508204503 | 13 | 221 | 8.0 | 20.9 | 0.00 | 0.46 | 0.33 | 39 | 1010.2 |
| 20260508204003 | 13 | 212 | 9.7 | 20.9 | 0.00 | 0.46 | 0.33 | 39 | 1010.3 |
| 20260508203503 | 13 | 211 | 9.7 | 22.5 | 0.00 | 0.46 | 0.33 | 41 | 1010.3 |
| 20260508203005 | 13 | 208 | 9.7 | 22.5 | 0.00 | 0.46 | 0.33 | 42 | 1010.4 |
| 20260508202503 | 13 | 195 | 11.3 | 32.2 | 0.00 | 0.46 | 0.33 | 41 | 1010.4 |
| 20260508202003 | 13 | 190 | 9.7 | 32.2 | 0.00 | 0.46 | 0.33 | 43 | 1010.5 |